CAPE
603 306 798 1083 875 646 620 516 425 380 221 38 0 0 0 0 0 0 0 0 0 0
840 486 698 846 893 743 603 477 349 97 40 9 0 0 0 0 0 0 0 0 0 0
1162 901 1108 930 791 700 630 374 148 62 39 0 0 0 0 0 0 0 0 0 0 0
1505 1353 1252 932 666 707 430 162 26 3 0 0 0 0 0 0 0 0 0 0 0 0
1446 1181 1323 992 803 646 230 3 3 3 0 0 0 0 0 0 0 0 0 0 0 0
1129 1190 1235 1061 863 363 39 3 4 2 0 0 0 0 0 0 0 0 0 0 0 0
1022 1031 961 1049 635 182 2 4 3 3 1 0 0 0 0 0 0 0 0 0 0 0
1146 1016 707 723 447 8 1 5 3 4 2 0 0 0 0 0 0 0 0 0 0 0
1282 905 523 263 2 1 2 4 2 2 0 0 0 0 0 0 0 0 0 0 0 0
1139 658 222 3 3 4 4 2 3 2 0 0 0 0 0 0 0 0 0 0 0 0
656 77 3 4 4 4 4 1 6 0 0 0 0 0 0 0 0 0 0 0 0 0
36 2 4 5 6 6 6 6 2 0 0 0 0 0 0 0 0 0 0 0 0 0
0 0 3 4 6 8 0 5 0 0 0 0 0 0 0 0 0 0 0 0 0 0
1 2 4 5 5 7 4 1 0 0 0 0 0 0 0 0 0 0 0 0 0 0
CIN
-113 -144 -103 -121 -173 -231 -215 -190 -205 -150 -213 -310 -0 -0 -0 -0 -0 -0 -0 -0 -0 -0
-142 -93 -97 -104 -148 -193 -182 -192 -212 -249 -235 -426 -0 -0 -0 -0 -0 -0 -0 -0 -0 -0
-101 -87 -57 -90 -117 -146 -134 -219 -240 -252 -319 -0 -0 -0 -0 -0 -0 -0 -0 -0 -0 -0
-51 -40 -35 -78 -139 -101 -132 -221 -259 -21 -0 -0 -0 -0 -0 -0 -0 -0 -0 -0 -0 -0
-52 -62 -23 -53 -88 -61 -142 -13 -0 -0 -0 -0 -0 -0 -0 -0 -0 -0 -0 -0 -0 -0
-33 -53 -39 -23 -22 -74 -157 -0 -0 -0 -0 -0 -0 -0 -0 -0 -0 -0 -0 -0 -0 -0
-47 -33 -29 -6 -21 -89 -0 -0 -0 -0 -0 -0 -0 -0 -0 -0 -0 -0 -0 -0 -0 -0
-63 -37 -21 -2 -23 -24 -0 -0 -0 -0 -0 -0 -0 -0 -0 -0 -0 -0 -0 -0 -0 -0
-53 -42 -31 -29 -10 -0 -0 -0 -0 -0 -0 -0 -0 -0 -0 -0 -0 -0 -0 -0 -0 -0
-62 -64 -34 -0 -0 -0 -0 -0 -0 -0 -0 -0 -0 -0 -0 -0 -0 -0 -0 -0 -0 -0
-85 -149 -0 -0 -0 -0 -0 -0 -0 -0 -0 -0 -0 -0 -0 -0 -0 -0 -0 -0 -0 -0
-180 -0 -0 -0 -0 -0 -0 -0 -0 -0 -0 -0 -0 -0 -0 -0 -0 -0 -0 -0 -0 -0
-0 -0 -0 -0 -0 -0 -0 -0 -0 -0 -0 -0 -0 -0 -0 -0 -0 -0 -0 -0 -0 -0
-0 -0 -0 -0 -0 -0 -0 -0 -0 -0 -0 -0 -0 -0 -0 -0 -0 -0 -0 -0 -0 -0
Wind_Speed
44 43 40 34 29 27 27 28 24 23 20 16 13 8 5 3 4 5 7 10 13 15
47 44 42 37 33 32 27 25 26 22 18 16 12 9 6 5 3 5 8 11 12 13
43 44 41 36 37 34 30 26 24 22 20 16 13 10 8 5 2 5 8 10 11 12
42 41 41 38 36 36 32 28 26 24 23 18 15 11 8 5 3 5 7 9 10 12
39 41 42 40 36 35 32 29 27 25 22 20 16 12 8 6 4 4 5 7 9 12
40 43 42 40 36 34 31 29 27 26 23 19 17 11 7 4 2 2 5 7 10 12
42 42 42 39 36 34 32 28 28 24 22 20 14 10 8 4 1 3 5 8 11 14
41 42 37 36 34 31 31 28 26 22 22 18 16 11 9 6 5 5 7 10 13 15
43 38 34 32 30 28 24 24 22 25 20 21 13 11 10 8 7 7 9 11 14 16
41 33 30 29 26 25 20 16 19 25 24 17 16 12 9 8 8 10 11 13 15 17
36 30 30 29 27 23 21 17 19 17 16 14 13 13 10 11 11 12 13 15 17 19
36 29 28 29 28 25 22 18 20 19 16 14 11 16 14 12 12 13 15 17 19 21
28 34 31 28 28 27 23 24 20 19 15 14 17 15 13 12 14 15 17 18 20 23
24 24 29 28 28 29 29 27 22 22 16 14 16 16 14 14 15 17 19 20 21 23
Wind_Direction
240 241 243 243 241 237 236 234 229 230 230 230 233 239 252 280 319 351 349 346 346 347
240 239 240 242 240 242 238 234 229 224 223 223 222 231 240 262 310 345 342 343 347 352
241 236 238 238 238 238 238 230 225 220 211 212 215 226 237 256 326 333 338 340 351 356
240 234 235 236 235 235 236 229 224 217 215 198 204 215 235 252 299 323 339 348 357 1
239 233 234 234 231 232 231 230 223 215 209 207 200 196 211 245 305 323 352 360 7 9
236 234 232 231 228 225 226 225 222 213 203 202 198 187 204 224 277 351 2 10 17 15
234 233 229 227 223 222 222 220 222 211 193 200 195 184 190 184 155 35 25 22 23 19
230 229 226 223 220 220 217 219 215 204 181 187 193 182 176 146 107 69 47 32 21 18
223 223 220 215 214 210 212 214 204 205 191 184 178 161 139 121 98 73 52 35 22 19
219 217 212 204 203 197 203 202 208 194 178 164 153 145 122 105 84 67 49 38 30 23
208 208 199 193 193 190 182 173 149 166 159 161 147 128 110 96 78 58 47 39 34 32
197 197 181 187 187 185 182 175 159 158 155 141 143 111 104 90 73 60 52 44 40 38
194 196 183 179 174 164 154 149 149 153 148 142 116 107 97 84 75 69 57 48 45 38
185 187 176 169 154 154 150 141 148 138 149 124 108 100 90 79 73 70 67 58 45 38